2024/01/24 00:00:00, 9.8,-6.7
2024/01/24 00:10:00, 9.8,-7.7
2024/01/24 00:20:00, 9.7,-7.2
2024/01/24 00:30:00, 9.6,-7.2
2024/01/24 00:40:00, 9.5,-7.3
2024/01/24 00:50:00, 9.4,-6.9
2024/01/24 01:00:00, 9.3,-6.6
2024/01/24 01:10:00, 9.3,-6.3
2024/01/24 01:20:00, 9.2,-6.3
2024/01/24 01:30:00, 9.2,-5.8
2024/01/24 01:40:00, 9.3,-5.3
2024/01/24 01:50:00, 9.4,-5.5
2024/01/24 02:00:00, 9.3,-6.2
2024/01/24 02:10:00, 9.2,-6.3
2024/01/24 02:20:00, 9.1,-6.0
2024/01/24 02:30:00, 9.0,-5.7
2024/01/24 02:40:00, 8.9,-5.8
2024/01/24 02:50:00, 8.8,-5.5
2024/01/24 03:00:00, 8.7,-5.4
2024/01/24 03:10:00, 8.5,-5.4
2024/01/24 03:20:00, 8.2,-5.7
2024/01/24 03:30:00, 8.1,-5.3
2024/01/24 03:40:00, 8.1,-5.2
2024/01/24 03:50:00, 8.0,-5.5
2024/01/24 04:00:00, 8.1,-5.4
2024/01/24 04:10:00, 8.0,-5.6
2024/01/24 04:20:00, 7.8,-6.2
2024/01/24 04:30:00, 7.7,-6.3
2024/01/24 04:40:00, 7.6,-6.3
2024/01/24 04:50:00, 7.6,-5.7
2024/01/24 05:00:00, 7.6,-5.5
2024/01/24 05:10:00, 7.5,-5.8
2024/01/24 05:20:00, 7.3,-5.6
2024/01/24 05:30:00, 7.3,-5.6
2024/01/24 05:40:00, 7.2,-5.8
2024/01/24 05:50:00, 7.2,-5.9
2024/01/24 06:00:00, 7.2,-5.6
2024/01/24 06:10:00, 7.1,-6.2
2024/01/24 06:20:00, 6.9,-6.3
2024/01/24 06:30:00, 6.9,-6.4
2024/01/24 06:40:00, 6.8,-6.7
2024/01/24 06:50:00, 6.8,-7.0
2024/01/24 07:00:00, 6.7,-7.0
2024/01/24 07:10:00, 6.5,-7.3
2024/01/24 07:20:00, 6.4,-7.0
2024/01/24 07:30:00, 6.3,-6.4
2024/01/24 07:40:00, 6.3,-5.6
2024/01/24 07:50:00, 6.4,-4.8
2024/01/24 08:00:00, 6.7,-5.2
2024/01/24 08:10:00, 7.1,-4.6
2024/01/24 08:20:00, 7.0,-4.8
2024/01/24 08:30:00, 6.9,-4.1
2024/01/24 08:40:00, 6.9,-3.8
2024/01/24 08:50:00, 6.7,-3.0
2024/01/24 09:00:00, 6.6,-3.2
2024/01/24 09:10:00, 6.5,-3.6
2024/01/24 09:20:00, 6.6,-3.1
2024/01/24 09:30:00, 6.5,-3.6
2024/01/24 09:40:00, 7.0,-3.2
2024/01/24 09:50:00, 7.5,-2.7
2024/01/24 10:00:00, 7.5,-3.4
2024/01/24 10:10:00, 8.2,-1.5
2024/01/24 10:20:00, 8.2,-3.2
2024/01/24 10:30:00, 9.4,-3.3
2024/01/24 10:40:00,11.0,-3.5
2024/01/24 10:50:00,12.0,-1.3
2024/01/24 11:00:00,12.3,-1.1
2024/01/24 11:10:00,12.8,-0.8
2024/01/24 11:20:00,12.7,-1.0
2024/01/24 11:30:00,12.7,-1.6
2024/01/24 11:40:00,12.6,-0.2
2024/01/24 11:50:00,12.5, 1.3
2024/01/24 12:00:00,12.3, 0.1
2024/01/24 12:10:00,12.1,-1.3
2024/01/24 12:20:00,12.1,-2.8
2024/01/24 12:30:00,13.0,-2.7
2024/01/24 12:40:00,13.0,-2.8
2024/01/24 12:50:00,13.4,-3.1
2024/01/24 13:00:00,14.7,-2.7
2024/01/24 13:10:00,16.0,-3.1
2024/01/24 13:20:00,16.5,-2.8
2024/01/24 13:30:00,17.1,-0.5
2024/01/24 13:40:00,17.4, 2.9
2024/01/24 13:50:00,17.2, 0.1
2024/01/24 14:00:00,16.9,-1.5
2024/01/24 14:10:00,16.9,-1.4
2024/01/24 14:20:00,16.9,-1.8
2024/01/24 14:30:00,16.8,-2.5
2024/01/24 14:40:00,16.9,-1.1
2024/01/24 14:50:00,17.1,-1.6
2024/01/24 15:00:00,17.3,-1.3
2024/01/24 15:10:00,17.1,-2.0
2024/01/24 15:20:00,17.5,-2.6
2024/01/24 15:30:00,18.1,-1.4
2024/01/24 15:40:00,18.1, 0.9
2024/01/24 15:50:00,17.7,-0.6
2024/01/24 16:00:00,17.2,-0.5
2024/01/24 16:10:00,17.0,-1.5
2024/01/24 16:20:00,16.9,-3.0
2024/01/24 16:30:00,17.0,-3.1
2024/01/24 16:40:00,17.3,-3.2
2024/01/24 16:50:00,17.5,-3.4
2024/01/24 17:00:00,17.9,-3.5
2024/01/24 17:10:00,17.8,-3.2
2024/01/24 17:20:00,18.2,-3.4
2024/01/24 17:30:00,18.4,-3.5
2024/01/24 17:40:00,18.4,-3.8
2024/01/24 17:50:00,18.5,-3.8
2024/01/24 18:00:00,18.8,-3.9
2024/01/24 18:10:00,18.5,-3.9
2024/01/24 18:20:00,18.3,-3.8
2024/01/24 18:30:00,18.2,-3.7
2024/01/24 18:40:00,18.5,-3.7
2024/01/24 18:50:00,19.1,-3.5
2024/01/24 19:00:00,19.7,-3.5
2024/01/24 19:10:00,20.3,-3.9
2024/01/24 19:20:00,21.2,-3.6
2024/01/24 19:30:00,20.9,-3.5
2024/01/24 19:40:00,20.8,-3.8
2024/01/24 19:50:00,20.9,-3.7
2024/01/24 20:00:00,21.0,-3.6
2024/01/24 20:10:00,21.3,-3.4
2024/01/24 20:20:00,21.5,-3.4
2024/01/24 20:30:00,21.4,-3.2
2024/01/24 20:40:00,21.9,-3.3
2024/01/24 20:50:00,22.3,-3.2
2024/01/24 21:00:00,22.5,-3.5
2024/01/24 21:10:00,22.5,-3.5
2024/01/24 21:20:00,22.1,-3.2
2024/01/24 21:30:00,22.1,-3.4
2024/01/24 21:40:00,22.2,-3.1
2024/01/24 21:50:00,22.3,-3.3
2024/01/24 22:00:00,22.3,-3.1
2024/01/24 22:10:00,22.7,-3.0
2024/01/24 22:20:00,23.4,-3.1
2024/01/24 22:30:00,23.5,-3.0
2024/01/24 22:40:00,24.1,-3.2
2024/01/24 22:50:00,25.5,-3.3
2024/01/24 23:00:00,26.5,-3.1
2024/01/24 23:10:00,27.9,-2.8
2024/01/24 23:20:00,28.9,-3.2
2024/01/24 23:30:00,29.9,-3.2
2024/01/24 23:40:00,31.5,-3.3
2024/01/24 23:50:00,33.3,-3.2
